Location: Caltech
(34.1382°N, 118.1253°W)
Time: 18:52:26
(UTC-07:00)

KITSAT 1 - Visible Passes

Search period start: 28 August 2016 00:00
Search period end: 07 September 2016 00:00
Orbit: 1309 x 1322 km, 66.1° (Epoch: 27 August)

Date Brightness Start Highest point End Pass type
(mag) Time Alt. Az. Time Alt. Az. Time Alt. Az.
28 Aug 11.8 02:19:33 10° N 02:26:21 29° NE 02:33:06 10° ESE visible
28 Aug 10.1 04:14:15 10° NW 04:22:11 61° WSW 04:30:02 10° S visible
28 Aug 12.9 20:40:34 10° NW 20:43:11 12° NW 20:45:49 10° NNW visible
29 Aug 11.2 02:35:12 10° NNW 02:42:46 41° NE 02:50:17 10° ESE visible
29 Aug 10.5 04:30:43 10° NW 04:38:02 39° WSW 04:45:20 10° S visible
30 Aug 12.6 00:58:12 10° N 01:01:51 13° NE 01:05:29 10° ENE visible
30 Aug 10.5 02:51:02 10° NNW 02:59:02 61° ENE 03:00:43 51° ESE visible
30 Aug 11.1 04:47:34 10° NW 05:02:44 - SSW 04:52:22 24° W visible
31 Aug 12.2 01:13:08 10° N 01:18:39 19° NE 01:21:39 16° ENE visible
31 Aug 10.4 03:07:01 10° NNW 03:13:28 61° NNW 03:13:28 61° NNW visible
01 Sep 11.7 01:28:32 10° N 01:35:17 28° NE 01:35:26 28° NE visible
01 Sep 11.2 03:23:12 10° NW 03:27:17 33° NW 03:27:17 33° NW visible
01 Sep 12.8 19:49:11 10° WNW 19:52:04 12° NW 19:54:58 10° NNW visible
02 Sep 11.4 01:44:11 10° NNW 01:49:42 35° NNE 01:49:42 35° NNE visible
02 Sep 11.8 03:39:37 10° NW 03:41:35 18° NW 03:41:35 18° NW visible
03 Sep 12.4 00:07:17 10° N 00:10:44 13° NE 00:12:21 12° NE visible
03 Sep 11.4 02:00:00 10° NNW 02:04:15 33° N 02:04:15 33° N visible
04 Sep 12.1 00:22:09 10° N 00:27:04 19° NE 00:27:04 19° NE visible
04 Sep 11.7 02:15:58 10° NNW 02:18:59 26° NNW 02:18:59 26° NNW visible
05 Sep 11.9 00:37:32 10° N 00:41:56 24° NNE 00:41:56 24° NNE visible
05 Sep 12.0 02:32:08 10° NNW 02:33:51 18° NW 02:33:51 18° NW visible
06 Sep 11.8 00:53:10 10° NNW 00:56:54 26° N 00:56:54 26° N visible
06 Sep 12.3 02:48:32 10° NW 02:48:49 11° NW 02:48:49 11° NW visible
06 Sep 12.3 23:16:23 10° NNE 23:19:37 13° NE 23:20:01 13° NE visible
